Other Public Products
Issued by NWS Grand Forks, ND

Home | Current Version | Previous Version | Text Only | Print | Product List | Glossary Off
Versions: 1 2 3 4 5 6 7 8 9 10 11 12 13 14 15 16 17 18 19 20 21 22 23 24 25 26 27 28 29 30 31 32 33 34 35 36 37 38 39 40 41 42 43 44 45 46 47 48 49 50

000
FPUS83 KFGF 180510
OPUFGF
PRAIRIE TO PINES WEATHER ROUNDUP
NATIONAL WEATHER SERVICE EASTERN NORTH DAKOTA/GRAND FORKS ND
1100 PM CST SAT FEB 17 2018

 **SATELLITE DATA USED TO AUGMENT SKY COVER AT AUTOMATED STATIONS**
 *****  WEATHER ACROSS EASTERN NORTH DAKOTA  *****

CITY           SKY/WX    TMP DP  RH WIND       PRES   REMARKS
GRAND FORKS    MOCLDY     5   3  91 SW3       29.97F
GRND FORKS AFB FAIR       4   1  84 W3        29.97S
GRND FORKS NWS   N/A      8   5  89 MISG      29.95S
BUXTON           N/A     10   8  94 CALM        N/A
DEVILS LAKE    FAIR       5   0  79 W8        29.92F WCI  -8
FARGO          FAIR      12   6  77 W7        29.97F WCI   1
WAHPETON ARPT  FAIR      12   5  73 S5        29.98F WCI   4
$$

 *****  WEATHER ACROSS CENTRAL AND WESTERN NORTH DAKOTA  *****

CITY           SKY/WX    TMP DP  RH WIND       PRES   REMARKS
JAMESTOWN      CLOUDY    11   7  84 CALM      29.91F
BISMARCK       CLOUDY    17   9  70 S7        29.89F WCI   8
MINOT          CLOUDY    11   3  70 NE6       29.87S WCI   1
MINOT AFB      FAIR      10   2  72 E5        29.86F WCI   1
GARRISON         N/A     12   4  70 E6        29.84F WCI   3
WILLISTON      CLOUDY    13   5  70 NE7       29.79F WCI   3
DICKINSON      CLOUDY    15   8  73 SE9       29.73F WCI   3
HETTINGER      CLOUDY    15   8  73 E13       29.72F WCI   1
$$

 *****  OTHER OBSERVATIONS NORTHEAST NORTH DAKOTA  *****

CITY           SKY/WX    TMP DP  RH WIND       PRES   REMARKS
WALHALLA       FAIR       9   1  72 CALM      29.95S
LANGDON        NOT AVBL
CAVALIER         N/A      7   0  72 SW5       29.95S WCI  -2
GRAFTON        NOT AVBL
CANDO          FAIR       1   0  92 NW9       29.93S WCI -14
FORT TOTTEN      N/A      6   1  80 CALM      29.95S
ROLLA          FAIR       0  -6  78 NW6       29.89S WCI -12
RUGBY          NOT AVBL
 ***** THE ABOVE OBSERVATIONS ARE NON NWS ARE NOT QUALITY
        CONTROLLED AND MAY MIS-REPORT RAIN FOR SNOW...
$$

 *****  OTHER OBSERVATIONS SOUTHEAST NORTH DAKOTA *****

CITY           SKY/WX    TMP DP  RH WIND       PRES   REMARKS
COOPERSTOWN    FAIR       7   5  92 CALM      29.94S
VALLEY CITY    NOT AVBL
OAKES            N/A     14   7  73 S5        29.95S WCI   6
GWINNER          N/A     12   7  79 CALM      29.96S
SHEYENNE NWR     N/A     10   5  81 SW3       29.95S
BUFFALO          N/A     12   6  75 N3          N/A
WYNDMERE       NOT AVBL
 ***** THE ABOVE OBSERVATIONS ARE NON NWS ARE NOT QUALITY
       CONTROLLED AND MAY MIS-REPORT RAIN FOR SNOW...
$$

  *****  WEATHER ACROSS NORTHERN MINNESOTA  *****

CITY           SKY/WX    TMP DP  RH WIND       PRES   REMARKS
FLAG ISLAND    FAIR      -2 -11  65 CALM      29.94R
WARROAD        FAIR      -2  -8  78 CALM      29.95S
ROSEAU         NOT AVBL
HALLOCK        FAIR       5  -2  72 S3        29.97R
THF RVR FALLS  CLOUDY    10   1  67 CALM      29.97R
HALSTAD        NOT AVBL
FOSSTON        MOCLDY     9   3  78 CALM      29.95F
BAUDETTE       FAIR       0  -8  69 NE3       29.94R
WASKISH        CLOUDY    12   7  79 NW5       29.95R WCI   4
CROOKSTON      FAIR      10   7  85 N6        29.98F WCI   1
$$
  *****  WEATHER ACROSS CENTRAL AND WEST MINNESOTA  *****

CITY           SKY/WX    TMP DP  RH WIND       PRES   REMARKS
BEMIDJI        CLOUDY    11   4  74 CALM      29.93S
PARK RAPIDS    FAIR       6   0  76 S5        29.95R WCI  -3
WADENA         FAIR       3   0  85 CALM      29.98S
DETROIT LAKES  FAIR       9   5  85 CALM      29.96S
MOORHEAD       FAIR      12   7  79 CALM      29.99F
FERGUS FALLS   FAIR      10   7  85 SE6       29.99S WCI   1
ELBOW LAKE     FAIR      11   5  76 E3        30.00F
MORRIS MN      FAIR      10   1  67 SE3       29.98F
STAPLES        FAIR       7   0  72 CALM      29.99R
WHEATON        FAIR      14   3  62 S3        30.01F
$$
  *****  WEATHER ELSEWHERE ACROSS MINNESOTA  *****

CITY           SKY/WX    TMP DP  RH WIND       PRES   REMARKS
DULUTH         FAIR      11   1  64 W7        29.96R WCI   0
INTRNTL FALLS  CLOUDY     8  -5  55 NW7       29.94R WCI  -3
ELY            MOCLDY    10   1  67 SW6       29.90S WCI   1
CLOQUET        FAIR      12   1  62 SW5       29.98R WCI   4
BRAINERD       FAIR       8  -1  66 S5        30.00R WCI   0
HIBBING        FAIR       6  -1  73 SW5       29.93S WCI  -3
ALEXANDRIA     FAIR      10   3  73 S5        30.00S WCI   2
SAINT CLOUD    FAIR      13   4  67 CALM      30.04R
MINNEAPOLIS    FAIR      23   7  50 W5        30.08R WCI  17
$$

  *****  WEATHER ACROSS SOUTH DAKOTA  *****

CITY           SKY/WX    TMP DP  RH WIND       PRES   REMARKS
SIOUX FALLS    MOCLDY    19  16  88 SW6       30.04R WCI  11
BROOKINGS      MOCLDY    20  17  88 SE7       29.97  WCI  11
WATERTOWN      FAIR      17  14  88 SE6       29.94F WCI   9
HURON          CLOUDY    23  20  88 SE6       29.97F WCI  16
SISSETON         N/A     14   7  73 S3        29.97F
ABERDEEN       MOCLDY    18  13  80 SE3       29.96F
MITCHELL       FAIR      24  20  84 SE10      29.99F WCI  14
PIERRE         CLOUDY    22  19  89 E14       29.81F WCI   9
MOBRIDGE       CLOUDY    19  12  74 SE5       29.84F WCI  12
RAPID CITY     FAIR      23  21  92 E3        29.60F
$$

  *****  SOME WEATHER IN NEARBY STATES *****

CITY           SKY/WX    TMP DP  RH WIND       PRES   REMARKS
GLASGOW MT     LGT SNOW  13   8  81 E18       29.68F VSB 1   WCI  -4
GREAT FALLS MT LGT SNOW   8   4  83 N21       29.56R VSB 3/4 WCI -12
CHEYENNE WY    FAIR      38   7  27 SW16      29.76F
SCOTTSBLUFF NE FAIR      41  20  43 S15       29.69F
OMAHA NE       FAIR      27  23  85 SE5       30.11F WCI  22
DES MOINES IA  FAIR      26  22  84 S7        30.17R WCI  18
DAVENPORT IA   FAIR      18  15  88 W7        30.18R WCI   9
CHICAGO IL     FAIR      27  22  81 W7        30.11R WCI  19
EAU CLAIRE WI  FAIR      19   7  59 W5        30.05R WCI  12
LA CROSSE WI   FAIR      25  17  72 SW6       30.10R WCI  18
$$

  *****  SOME NATIONAL WEATHER *****

CITY           SKY/WX    TMP DP  RH WIND       PRES   REMARKS
LA GUARDIA NY  LGT SNOW  33  32  96 NE7       30.00F VSB 1
RALEIGH NC     LGT RAIN  41  40  96 VRB6      30.12R FOG
ATLANTA GA     LGT RAIN  62  60  93 NW13      30.13R
NEW ORLEANS LA MOCLDY    70  67  90 SW6       30.15F
OKLAHOMA CITY  FAIR      40  29  64 CALM      30.18F
ALBUQUERQUE NM FAIR      43  27  53 SE5       30.15S
SALT LAKE CITY FAIR      56  17  21 S23G30    29.76F
LOS ANGELES CA FAIR      59  51  75 SW8       30.03F
BOISE ID       CLOUDY    53  31  42 W17G28    29.64F
SEATTLE WA     FAIR      42  34  73 S23G36    29.57R
$$

*** WEATHER ACROSS MANITOBA...SASKATCHEWAN AND ONTARIO ***
                ***ONTARIO***

CITY           SKY/WX    TMP DP  RH WIND       PRES   REMARKS
GERALDTON      FLURRIES   9   0  66 NW10G18   29.79R WCI  -6
THUNDER BAY    CLEAR     16   1  53 W10       29.89R WCI   3
SIOUX LOOKOUT  CLEAR     -6 -13  71 W3        29.87R
TORONTO        CLOUDY    28  21  74 W10       29.95S WCI  19
BIG TROUT LK   PTCLDY   -15 -20  76 W8        29.75R WCI -32
PICKLE LAKE    NOT AVBL
DRYDEN         CLEAR     -2  -9  71 SW7       29.88R WCI -16
KENORA         CLEAR     -2  -8  78 SW6       29.90R WCI -14
$$
                *** MANITOBA***

CITY           SKY/WX    TMP DP  RH WIND       PRES   REMARKS
BRANDON        CLEAR     -8 -13  77 NW7       29.90F WCI -22
DAUPHIN        CLEAR      0  -6  78 W10       29.90R WCI -17
ISLAND LAKE    FLURRIES -13 -18  77 NW7       29.82R WCI -29
PILOT MOUND      N/A      5   0  78 NW7         N/A  WCI  -7
THE PAS        CLEAR    -11 -20  64 N3        29.89R
THOMPSON       PTCLDY   -26 -35  62 NW6       29.85R WCI -42
WINNIPEG       CLEAR      3  -6  66 W9        29.95R WCI -11
LYNN LAKE      CLEAR    -27 -33  75 W7        29.82R WCI -46
CHURCHILL      LGT SNOW -35 -42  67 NW16G24   29.84R BLWGSNOWWCI -65
GILLAM         CLEAR    -27 -40  51 NW7       29.84R WCI -46
$$
                ***SASKATCHEWAN***

CITY           SKY/WX    TMP DP  RH WIND       PRES   REMARKS
ESTEVAN        MOCLDY     0  -6  78 VRB2      29.83F
KINDERSLEY     CLOUDY     1  -4  78 N6        29.82R WCI -10
LLOYDMINSTER   FLURRIES   5   0  78 NW7       29.85S WCI  -7
PRINCE ALBERT  CLEAR     -9 -13  84 SW2       29.91R
REGINA         CLOUDY     5  -2  72 N6        29.82F WCI  -6
YORKTON        CLOUDY     3  -4  72 W9        29.85R W



USA.gov is the U.S. government's official web portal to all federal, state and local government web resources and services.